Time,TemperatureF,DewpointF,PressureIn,WindDirection,WindDirectionDegrees,WindSpeedMPH,WindSpeedGustMPH,Humidity,HourlyPrecipIn,Conditions,Clouds,dailyrainin,SoftwareType,DateUTC
2013-03-15 00:00:00,42.3,15.9,30.18,North,0,0.0,0.0,34,0.00,CLR,FEW,0.00,WeatherDisplay:10.37,2013-03-15 04:00:00,
2013-03-15 00:02:00,42.1,15.7,30.18,North,0,0.0,0.0,34,0.00,CLR,FEW,0.00,WeatherDisplay:10.37,2013-03-15 04:02:00,
2013-03-15 00:05:00,42.1,15.7,30.18,North,0,0.0,0.0,34,0.00,CLR,FEW,0.00,WeatherDisplay:10.37,2013-03-15 04:05:00,
2013-03-15 00:11:00,42.1,16.4,30.18,North,0,0.0,0.0,35,0.00,CLR,FEW,0.00,WeatherDisplay:10.37,2013-03-15 04:11:00,
2013-03-15 00:17:00,41.9,16.2,30.18,North,0,0.0,0.0,35,0.00,CLR,FEW,0.00,WeatherDisplay:10.37,2013-03-15 04:17:00,
2013-03-15 00:23:00,41.7,16.7,30.18,North,0,0.0,0.0,36,0.00,CLR,FEW,0.00,WeatherDisplay:10.37,2013-03-15 04:23:00,
2013-03-15 00:26:00,41.4,17.0,30.18,North,0,0.0,0.0,37,0.00,CLR,FEW,0.00,WeatherDisplay:10.37,2013-03-15 04:26:00,
2013-03-15 00:31:00,41.0,17.3,30.18,North,0,0.0,0.0,38,0.00,CLR,FEW,0.00,WeatherDisplay:10.37,2013-03-15 04:31:00,
2013-03-15 00:36:00,40.8,17.1,30.18,North,0,0.0,0.0,38,0.00,CLR,FEW,0.00,WeatherDisplay:10.37,2013-03-15 04:36:00,
2013-03-15 00:41:00,40.6,17.6,30.18,North,0,0.0,0.0,39,0.00,CLR,FEW,0.00,WeatherDisplay:10.37,2013-03-15 04:41:00,
2013-03-15 00:46:00,40.5,17.4,30.18,North,0,0.0,0.0,39,0.00,CLR,FEW,0.00,WeatherDisplay:10.37,2013-03-15 04:46:00,
2013-03-15 00:52:00,40.5,17.4,30.18,North,0,0.0,0.0,39,0.00,CLR,FEW,0.00,WeatherDisplay:10.37,2013-03-15 04:52:00,
2013-03-15 00:58:00,40.5,17.4,30.18,North,0,0.0,0.0,39,0.00,CLR,FEW,0.00,WeatherDisplay:10.37,2013-03-15 04:58:00,
2013-03-15 01:03:00,40.3,17.3,30.18,North,0,0.0,0.0,39,0.00,CLR,FEW,0.00,WeatherDisplay:10.37,2013-03-15 05:03:00,
2013-03-15 01:08:00,40.3,17.3,30.18,North,0,0.0,0.0,39,0.00,CLR,FEW,0.00,WeatherDisplay:10.37,2013-03-15 05:08:00,
2013-03-15 01:13:00,40.1,17.1,30.18,North,0,0.0,0.0,39,0.00,CLR,FEW,0.00,WeatherDisplay:10.37,2013-03-15 05:13:00,
2013-03-15 01:18:00,40.1,17.1,30.18,North,0,0.0,0.0,39,0.00,CLR,FEW,0.00,WeatherDisplay:10.37,2013-03-15 05:18:00,
2013-03-15 01:23:00,39.9,16.9,30.18,North,0,0.0,0.0,39,0.00,CLR,FEW,0.00,WeatherDisplay:10.37,2013-03-15 05:23:00,
2013-03-15 01:29:00,39.7,16.8,30.18,North,0,0.0,0.0,39,0.00,CLR,FEW,0.00,WeatherDisplay:10.37,2013-03-15 05:29:00,
2013-03-15 01:34:00,39.6,16.6,30.18,North,0,0.0,0.0,39,0.00,CLR,FEW,0.00,WeatherDisplay:10.37,2013-03-15 05:34:00,
2013-03-15 01:39:00,39.4,17.0,30.18,North,0,0.0,0.0,40,0.00,CLR,FEW,0.00,WeatherDisplay:10.37,2013-03-15 05:39:00,
2013-03-15 01:45:00,39.2,16.9,30.18,North,0,0.0,0.0,40,0.00,CLR,FEW,0.00,WeatherDisplay:10.37,2013-03-15 05:45:00,
2013-03-15 01:50:00,39.2,17.4,30.18,North,0,0.0,0.0,41,0.00,CLR,FEW,0.00,WeatherDisplay:10.37,2013-03-15 05:50:00,
2013-03-15 01:55:00,39.2,17.4,30.18,North,0,0.0,0.0,41,0.00,CLR,FEW,0.00,WeatherDisplay:10.37,2013-03-15 05:55:00,
2013-03-15 02:00:00,39.2,17.4,30.18,North,0,0.0,0.0,41,0.00,CLR,FEW,0.00,WeatherDisplay:10.37,2013-03-15 06:00:00,
2013-03-15 02:05:00,39.2,17.4,30.18,North,0,0.0,0.0,41,0.00,CLR,FEW,0.00,WeatherDisplay:10.37,2013-03-15 06:05:00,
2013-03-15 02:10:00,39.4,17.6,30.18,North,0,0.0,0.0,41,0.00,CLR,FEW,0.00,WeatherDisplay:10.37,2013-03-15 06:10:00,
2013-03-15 02:15:00,39.4,17.6,30.18,North,0,0.0,0.0,41,0.00,CLR,FEW,0.00,WeatherDisplay:10.37,2013-03-15 06:15:00,
2013-03-15 02:20:00,39.4,17.6,30.18,North,0,0.0,0.0,41,0.00,CLR,FEW,0.00,WeatherDisplay:10.37,2013-03-15 06:20:00,
2013-03-15 02:25:00,39.4,17.6,30.18,North,0,0.0,0.0,41,0.00,CLR,FEW,0.00,WeatherDisplay:10.37,2013-03-15 06:25:00,
2013-03-15 02:30:00,39.4,17.6,30.18,North,0,0.0,0.0,41,0.00,CLR,FEW,0.00,WeatherDisplay:10.37,2013-03-15 06:30:00,
2013-03-15 02:35:00,39.2,17.4,30.18,North,0,0.0,0.0,41,0.00,CLR,FEW,0.00,WeatherDisplay:10.37,2013-03-15 06:35:00,
2013-03-15 02:40:00,39.2,17.4,30.18,North,0,0.0,0.0,41,0.00,CLR,FEW,0.00,WeatherDisplay:10.37,2013-03-15 06:40:00,
2013-03-15 02:45:00,39.0,17.8,30.18,North,0,0.0,0.0,42,0.00,CLR,FEW,0.00,WeatherDisplay:10.37,2013-03-15 06:45:00,
2013-03-15 02:50:00,39.0,17.8,30.18,North,0,0.0,0.0,42,0.00,CLR,FEW,0.00,WeatherDisplay:10.37,2013-03-15 06:50:00,
2013-03-15 02:55:00,39.0,17.8,30.18,North,0,0.0,0.0,42,0.00,CLR,FEW,0.00,WeatherDisplay:10.37,2013-03-15 06:55:00,
2013-03-15 03:00:00,38.8,17.7,30.18,North,0,0.0,0.0,42,0.00,CLR,FEW,0.00,WeatherDisplay:10.37,2013-03-15 07:00:00,
2013-03-15 03:05:00,38.7,17.5,30.18,North,0,0.0,0.0,42,0.00,CLR,FEW,0.00,WeatherDisplay:10.37,2013-03-15 07:05:00,
2013-03-15 03:10:00,38.5,17.3,30.18,North,0,0.0,0.0,42,0.00,CLR,FEW,0.00,WeatherDisplay:10.37,2013-03-15 07:10:00,
2013-03-15 03:15:00,38.3,17.2,30.15,North,0,0.0,0.0,42,0.00,CLR,FEW,0.00,WeatherDisplay:10.37,2013-03-15 07:15:00,
2013-03-15 03:20:00,38.5,17.9,30.15,North,0,0.0,0.0,43,0.00,CLR,FEW,0.00,WeatherDisplay:10.37,2013-03-15 07:20:00,
2013-03-15 03:25:00,38.5,18.4,30.15,North,0,0.0,0.0,44,0.00,CLR,FEW,0.00,WeatherDisplay:10.37,2013-03-15 07:25:00,
2013-03-15 03:30:00,38.5,17.9,30.15,North,0,0.0,0.0,43,0.00,CLR,FEW,0.00,WeatherDisplay:10.37,2013-03-15 07:30:00,
2013-03-15 03:35:00,38.5,18.4,30.15,North,0,0.0,0.0,44,0.00,CLR,FEW,0.00,WeatherDisplay:10.37,2013-03-15 07:35:00,
2013-03-15 03:40:00,38.5,19.0,30.15,North,0,0.0,0.0,45,0.00,CLR,FEW,0.00,WeatherDisplay:10.37,2013-03-15 07:40:00,
2013-03-15 03:45:00,38.8,19.3,30.15,North,0,0.0,0.0,45,0.00,CLR,FEW,0.00,WeatherDisplay:10.37,2013-03-15 07:45:00,
2013-03-15 03:50:00,39.0,18.9,30.15,North,0,0.0,0.0,44,0.00,CLR,FEW,0.00,WeatherDisplay:10.37,2013-03-15 07:50:00,
2013-03-15 03:55:00,39.2,19.1,30.15,North,0,0.0,0.0,44,0.00,CLR,FEW,0.00,WeatherDisplay:10.37,2013-03-15 07:55:00,
2013-03-15 04:00:00,39.2,18.5,30.15,North,0,0.0,0.0,43,0.00,CLR,FEW,0.00,WeatherDisplay:10.37,2013-03-15 08:00:00,
2013-03-15 04:05:00,39.0,18.9,30.15,North,0,0.0,0.0,44,0.00,CLR,FEW,0.00,WeatherDisplay:10.37,2013-03-15 08:05:00,
2013-03-15 04:10:00,38.7,18.1,30.15,North,0,0.0,0.0,43,0.00,CLR,FEW,0.00,WeatherDisplay:10.37,2013-03-15 08:10:00,
2013-03-15 04:15:00,38.5,18.4,30.15,North,0,0.0,0.0,44,0.00,CLR,FEW,0.00,WeatherDisplay:10.37,2013-03-15 08:15:00,
2013-03-15 04:20:00,38.1,18.1,30.15,North,0,0.0,0.0,44,0.00,CLR,FEW,0.00,WeatherDisplay:10.37,2013-03-15 08:20:00,
2013-03-15 04:25:00,38.1,18.1,30.15,North,0,0.0,0.0,44,0.00,CLR,FEW,0.00,WeatherDisplay:10.37,2013-03-15 08:25:00,
2013-03-15 04:30:00,37.9,18.5,30.15,North,0,0.0,0.0,45,0.00,CLR,FEW,0.00,WeatherDisplay:10.37,2013-03-15 08:30:00,
2013-03-15 04:35:00,37.6,18.6,30.15,North,0,0.0,0.0,46,0.00,CLR,FEW,0.00,WeatherDisplay:10.37,2013-03-15 08:35:00,
2013-03-15 04:40:00,37.4,20.0,30.15,North,0,0.0,0.0,49,0.00,CLR,FEW,0.00,WeatherDisplay:10.37,2013-03-15 08:40:00,
2013-03-15 04:45:00,37.6,20.6,30.15,North,0,0.0,0.0,50,0.00,CLR,FEW,0.00,WeatherDisplay:10.37,2013-03-15 08:45:00,
2013-03-15 04:50:00,37.4,20.4,30.15,North,0,0.0,0.0,50,0.00,CLR,FEW,0.00,WeatherDisplay:10.37,2013-03-15 08:50:00,
2013-03-15 04:55:00,37.0,20.6,30.15,North,0,0.0,0.0,51,0.00,CLR,FEW,0.00,WeatherDisplay:10.37,2013-03-15 08:55:00,
2013-03-15 05:00:00,36.9,20.9,30.15,North,0,0.0,0.0,52,0.00,CLR,FEW,0.00,WeatherDisplay:10.37,2013-03-15 09:00:00,
2013-03-15 05:05:00,36.7,20.7,30.15,North,0,0.0,0.0,52,0.00,CLR,FEW,0.00,WeatherDisplay:10.37,2013-03-15 09:05:00,
2013-03-15 05:10:00,36.5,21.0,30.15,North,0,0.0,0.0,53,0.00,CLR,FEW,0.00,WeatherDisplay:10.37,2013-03-15 09:10:00,
2013-03-15 05:15:00,36.3,20.8,30.15,North,0,0.0,0.0,53,0.00,CLR,FEW,0.00,WeatherDisplay:10.37,2013-03-15 09:15:00,
2013-03-15 05:20:00,36.3,21.2,30.15,North,0,0.0,0.0,54,0.00,CLR,FEW,0.00,WeatherDisplay:10.37,2013-03-15 09:20:00,
2013-03-15 05:25:00,36.3,21.2,30.15,North,0,0.0,0.0,54,0.00,CLR,FEW,0.00,WeatherDisplay:10.37,2013-03-15 09:25:00,
2013-03-15 05:30:00,36.3,21.2,30.18,North,0,0.0,0.0,54,0.00,CLR,FEW,0.00,WeatherDisplay:10.37,2013-03-15 09:30:00,
2013-03-15 05:35:00,36.3,21.2,30.18,North,0,0.0,0.0,54,0.00,CLR,FEW,0.00,WeatherDisplay:10.37,2013-03-15 09:35:00,
2013-03-15 05:40:00,36.3,20.8,30.18,North,0,0.0,0.0,53,0.00,CLR,FEW,0.00,WeatherDisplay:10.37,2013-03-15 09:40:00,
2013-03-15 05:45:00,36.3,20.8,30.18,North,0,0.0,0.0,53,0.00,CLR,FEW,0.00,WeatherDisplay:10.37,2013-03-15 09:45:00,
2013-03-15 05:50:00,36.5,20.5,30.18,North,0,0.0,0.0,52,0.00,CLR,FEW,0.00,WeatherDisplay:10.37,2013-03-15 09:50:00,
2013-03-15 05:55:00,36.5,20.5,30.18,North,0,0.0,0.0,52,0.00,CLR,FEW,0.00,WeatherDisplay:10.37,2013-03-15 09:55:00,
2013-03-15 06:00:00,36.5,20.1,30.18,North,0,0.0,0.0,51,0.00,CLR,FEW,0.00,WeatherDisplay:10.37,2013-03-15 10:00:00,
2013-03-15 06:05:00,36.3,19.9,30.18,North,0,0.0,0.0,51,0.00,CLR,FEW,0.00,WeatherDisplay:10.37,2013-03-15 10:05:00,
2013-03-15 06:10:00,36.1,19.7,30.18,North,0,0.0,0.0,51,0.00,CLR,FEW,0.00,WeatherDisplay:10.37,2013-03-15 10:10:00,
2013-03-15 06:15:00,36.1,20.2,30.18,North,0,0.0,0.0,52,0.00,CLR,FEW,0.00,WeatherDisplay:10.37,2013-03-15 10:15:00,
2013-03-15 06:20:00,36.0,20.0,30.18,North,0,0.0,0.0,52,0.00,CLR,FEW,0.00,WeatherDisplay:10.37,2013-03-15 10:20:00,
2013-03-15 06:25:00,36.0,20.0,30.18,North,0,0.0,0.0,52,0.00,CLR,FEW,0.00,WeatherDisplay:10.37,2013-03-15 10:25:00,
2013-03-15 06:30:00,36.0,20.0,30.18,North,0,0.0,0.0,52,0.00,CLR,FEW,0.00,WeatherDisplay:10.37,2013-03-15 10:30:00,
2013-03-15 06:35:00,35.8,19.9,30.18,North,0,0.0,0.0,52,0.00,CLR,FEW,0.00,WeatherDisplay:10.37,2013-03-15 10:35:00,
2013-03-15 06:40:00,35.6,20.1,30.18,North,0,0.0,0.0,53,0.00,CLR,FEW,0.00,WeatherDisplay:10.37,2013-03-15 10:40:00,
2013-03-15 06:45:00,35.4,20.4,30.18,North,0,0.0,0.0,54,0.00,CLR,FEW,0.00,WeatherDisplay:10.37,2013-03-15 10:45:00,
2013-03-15 06:50:00,35.4,20.8,30.18,North,0,0.0,0.0,55,0.00,CLR,FEW,0.00,WeatherDisplay:10.37,2013-03-15 10:50:00,
2013-03-15 06:55:00,35.2,20.7,30.18,North,0,0.0,0.0,55,0.00,CLR,FEW,0.00,WeatherDisplay:10.37,2013-03-15 10:55:00,
2013-03-15 07:00:00,35.2,20.7,30.21,North,0,0.0,0.0,55,0.00,CLR,FEW,0.00,WeatherDisplay:10.37,2013-03-15 11:00:00,
2013-03-15 07:05:00,35.4,20.8,30.21,North,0,0.0,0.0,55,0.00,CLR,FEW,0.00,WeatherDisplay:10.37,2013-03-15 11:05:00,
2013-03-15 07:10:00,35.4,20.8,30.21,North,0,0.0,0.0,55,0.00,CLR,FEW,0.00,WeatherDisplay:10.37,2013-03-15 11:10:00,
2013-03-15 07:15:00,35.4,20.8,30.21,North,0,0.0,0.0,55,0.00,CLR,FEW,0.00,WeatherDisplay:10.37,2013-03-15 11:15:00,
2013-03-15 07:20:00,35.4,20.8,30.21,North,0,0.0,0.0,55,0.00,CLR,FEW,0.00,WeatherDisplay:10.37,2013-03-15 11:20:00,
2013-03-15 07:25:00,35.2,20.7,30.21,North,0,0.0,0.0,55,0.00,CLR,FEW,0.00,WeatherDisplay:10.37,2013-03-15 11:25:00,
2013-03-15 07:30:00,35.1,20.1,30.18,North,0,0.0,0.0,54,0.00,CLR,FEW,0.00,WeatherDisplay:10.37,2013-03-15 11:30:00,
2013-03-15 07:35:00,35.1,20.9,30.18,North,0,0.0,0.0,56,0.00,CLR,FEW,0.00,WeatherDisplay:10.37,2013-03-15 11:35:00,
2013-03-15 07:40:00,34.9,21.2,30.18,North,0,0.0,0.0,57,0.00,CLR,FEW,0.00,WeatherDisplay:10.37,2013-03-15 11:40:00,
2013-03-15 07:45:00,34.9,21.2,30.18,North,0,0.0,0.0,57,0.00,CLR,FEW,0.00,WeatherDisplay:10.37,2013-03-15 11:45:00,
2013-03-15 07:50:00,35.1,22.6,30.18,North,0,0.0,0.0,60,0.00,CLR,FEW,0.00,WeatherDisplay:10.37,2013-03-15 11:50:00,
2013-03-15 07:55:00,35.1,22.6,30.18,North,0,0.0,0.0,60,0.00,CLR,FEW,0.00,WeatherDisplay:10.37,2013-03-15 11:55:00,
2013-03-15 08:00:00,35.2,22.7,30.18,North,0,0.0,0.0,60,0.00,CLR,FEW,0.00,WeatherDisplay:10.37,2013-03-15 12:00:00,
2013-03-15 08:05:00,35.6,23.1,30.18,North,0,0.0,0.0,60,0.00,CLR,FEW,0.00,WeatherDisplay:10.37,2013-03-15 12:05:00,
2013-03-15 08:10:00,36.0,23.0,30.18,North,0,0.0,0.0,59,0.00,CLR,FEW,0.00,WeatherDisplay:10.37,2013-03-15 12:10:00,
2013-03-15 08:15:00,36.7,23.3,30.21,North,0,0.0,0.0,58,0.00,CLR,FEW,0.00,WeatherDisplay:10.37,2013-03-15 12:15:00,
2013-03-15 08:20:00,37.8,23.5,30.21,North,0,0.0,0.0,56,0.00,CLR,FEW,0.00,WeatherDisplay:10.37,2013-03-15 12:20:00,
2013-03-15 08:25:00,38.7,21.6,30.21,North,0,0.0,0.0,50,0.00,CLR,FEW,0.00,WeatherDisplay:10.37,2013-03-15 12:25:00,
2013-03-15 08:30:00,39.7,21.1,30.21,North,0,0.0,0.0,47,0.00,CLR,FEW,0.00,WeatherDisplay:10.37,2013-03-15 12:30:00,
2013-03-15 08:35:00,41.0,19.6,30.21,North,0,0.0,0.0,42,0.00,CLR,FEW,0.00,WeatherDisplay:10.37,2013-03-15 12:35:00,
2013-03-15 08:41:00,42.1,20.6,30.21,North,0,0.0,0.0,42,0.00,CLR,FEW,0.00,WeatherDisplay:10.37,2013-03-15 12:41:00,
2013-03-15 08:46:00,43.5,20.8,30.21,North,0,0.0,0.0,40,0.00,CLR,FEW,0.00,WeatherDisplay:10.37,2013-03-15 12:46:00,
2013-03-15 08:51:00,44.6,21.1,30.21,North,0,0.0,0.0,39,0.00,CLR,FEW,0.00,WeatherDisplay:10.37,2013-03-15 12:51:00,
2013-03-15 08:56:00,45.5,21.9,30.21,North,0,0.0,0.0,39,0.00,CLR,FEW,0.00,WeatherDisplay:10.37,2013-03-15 12:56:00,
2013-03-15 09:02:00,46.4,21.5,30.21,North,0,0.0,0.0,37,0.00,CLR,FEW,0.00,WeatherDisplay:10.37,2013-03-15 13:02:00,
2013-03-15 09:07:00,47.3,21.0,30.21,North,0,0.0,0.0,35,0.00,CLR,FEW,0.00,WeatherDisplay:10.37,2013-03-15 13:07:00,
2013-03-15 09:12:00,48.2,19.7,30.21,North,0,0.0,0.0,32,0.00,CLR,FEW,0.00,WeatherDisplay:10.37,2013-03-15 13:12:00,
2013-03-15 09:17:00,48.7,17.0,30.21,North,0,0.0,0.0,28,0.00,CLR,FEW,0.00,WeatherDisplay:10.37,2013-03-15 13:17:00,
2013-03-15 09:22:00,49.5,16.8,30.21,North,0,0.0,0.0,27,0.00,CLR,FEW,0.00,WeatherDisplay:10.37,2013-03-15 13:22:00,
2013-03-15 09:27:00,50.0,16.4,30.21,North,0,0.0,0.0,26,0.00,CLR,FEW,0.00,WeatherDisplay:10.37,2013-03-15 13:27:00,
2013-03-15 09:32:00,50.7,17.0,30.21,North,0,0.0,0.0,26,0.00,CLR,FEW,0.00,WeatherDisplay:10.37,2013-03-15 13:32:00,
2013-03-15 09:37:00,51.6,17.8,30.21,North,0,0.0,0.0,26,0.00,CLR,FEW,0.00,WeatherDisplay:10.37,2013-03-15 13:37:00,
2013-03-15 09:42:00,52.0,15.3,30.21,North,0,0.0,0.0,23,0.00,CLR,FEW,0.00,WeatherDisplay:10.37,2013-03-15 13:42:00,
2013-03-15 09:47:00,52.3,13.5,30.21,North,0,0.0,0.0,21,0.00,CLR,FEW,0.00,WeatherDisplay:10.37,2013-03-15 13:47:00,
2013-03-15 09:52:00,52.5,13.6,30.21,North,0,0.0,0.0,21,0.00,CLR,FEW,0.00,WeatherDisplay:10.37,2013-03-15 13:52:00,
2013-03-15 09:57:00,52.2,13.3,30.21,North,0,0.0,0.0,21,0.00,CLR,FEW,0.00,WeatherDisplay:10.37,2013-03-15 13:57:00,
2013-03-15 10:02:00,52.2,15.4,30.21,North,0,0.0,0.0,23,0.00,CLR,FEW,0.00,WeatherDisplay:10.37,2013-03-15 14:02:00,
2013-03-15 10:07:00,52.2,15.4,30.21,North,0,0.0,0.0,23,0.00,CLR,FEW,0.00,WeatherDisplay:10.37,2013-03-15 14:07:00,
2013-03-15 10:12:00,52.0,15.3,30.21,North,0,0.0,0.0,23,0.00,CLR,FEW,0.00,WeatherDisplay:10.37,2013-03-15 14:12:00,
2013-03-15 10:18:00,52.3,15.6,30.21,North,0,0.0,0.0,23,0.00,CLR,FEW,0.00,WeatherDisplay:10.37,2013-03-15 14:18:00,
2013-03-15 10:23:00,52.3,15.6,30.21,North,0,0.0,0.0,23,0.00,CLR,FEW,0.00,WeatherDisplay:10.37,2013-03-15 14:23:00,
2013-03-15 10:28:00,51.8,18.0,30.21,North,0,0.0,0.0,26,0.00,CLR,FEW,0.00,WeatherDisplay:10.37,2013-03-15 14:28:00,
2013-03-15 10:33:00,51.6,17.8,30.21,North,0,0.0,0.0,26,0.00,CLR,FEW,0.00,WeatherDisplay:10.37,2013-03-15 14:33:00,
2013-03-15 10:38:00,51.6,17.8,30.21,North,0,0.0,0.0,26,0.00,CLR,FEW,0.00,WeatherDisplay:10.37,2013-03-15 14:38:00,
2013-03-15 10:43:00,51.6,17.8,30.21,North,0,0.0,0.0,26,0.00,CLR,FEW,0.00,WeatherDisplay:10.37,2013-03-15 14:43:00,
2013-03-15 10:48:00,51.6,18.7,30.21,North,0,0.0,0.0,27,0.00,CLR,FEW,0.00,WeatherDisplay:10.37,2013-03-15 14:48:00,
2013-03-15 10:53:00,52.2,18.3,30.21,North,0,0.0,0.0,26,0.00,CLR,FEW,0.00,WeatherDisplay:10.37,2013-03-15 14:53:00,
2013-03-15 10:58:00,52.5,19.5,30.21,North,0,0.0,0.0,27,0.00,CLR,FEW,0.00,WeatherDisplay:10.37,2013-03-15 14:58:00,
2013-03-15 11:03:00,53.1,19.0,30.21,North,0,0.0,0.0,26,0.00,CLR,FEW,0.00,WeatherDisplay:10.37,2013-03-15 15:03:00,
2013-03-15 11:08:00,53.1,19.9,30.21,North,0,0.0,0.0,27,0.00,CLR,FEW,0.00,WeatherDisplay:10.37,2013-03-15 15:08:00,
2013-03-15 11:13:00,52.9,19.8,30.21,North,0,0.0,0.0,27,0.00,CLR,FEW,0.00,WeatherDisplay:10.37,2013-03-15 15:13:00,
2013-03-15 11:26:00,52.8,19.7,30.21,North,0,0.0,0.0,27,0.00,CLR,FEW,0.00,WeatherDisplay:10.37,2013-03-15 15:26:00,
2013-03-15 11:32:00,52.7,19.6,30.18,North,0,0.0,0.0,27,0.00,CLR,FEW,0.00,WeatherDisplay:10.37,2013-03-15 15:32:00,
2013-03-15 11:37:00,53.1,19.0,30.18,North,0,0.0,0.0,26,0.00,CLR,FEW,0.00,WeatherDisplay:10.37,2013-03-15 15:37:00,
2013-03-15 11:42:00,52.7,19.6,30.18,North,0,0.0,0.0,27,0.00,CLR,FEW,0.00,WeatherDisplay:10.37,2013-03-15 15:42:00,
2013-03-15 11:47:00,53.1,19.9,30.18,North,0,0.0,0.0,27,0.00,CLR,FEW,0.00,WeatherDisplay:10.37,2013-03-15 15:47:00,
2013-03-15 11:52:00,53.2,20.1,30.18,North,0,0.0,0.0,27,0.00,CLR,FEW,0.00,WeatherDisplay:10.37,2013-03-15 15:52:00,
2013-03-15 11:57:00,53.4,19.3,30.18,North,0,0.0,0.0,26,0.00,CLR,FEW,0.00,WeatherDisplay:10.37,2013-03-15 15:57:00,
2013-03-15 12:02:00,53.2,20.1,30.18,North,0,0.0,0.0,27,0.00,CLR,FEW,0.00,WeatherDisplay:10.37,2013-03-15 16:02:00,
2013-03-15 12:07:00,53.4,20.2,30.18,North,0,0.0,0.0,27,0.00,CLR,FEW,0.00,WeatherDisplay:10.37,2013-03-15 16:07:00,
2013-03-15 12:12:00,53.6,19.5,30.18,North,0,0.0,0.0,26,0.00,CLR,FEW,0.00,WeatherDisplay:10.37,2013-03-15 16:12:00,
2013-03-15 12:17:00,53.6,20.4,30.18,North,0,0.0,0.0,27,0.00,CLR,FEW,0.00,WeatherDisplay:10.37,2013-03-15 16:17:00,
2013-03-15 12:22:00,53.4,20.2,30.18,North,0,0.0,0.0,27,0.00,CLR,FEW,0.00,WeatherDisplay:10.37,2013-03-15 16:22:00,
2013-03-15 12:27:00,53.6,20.4,30.18,North,0,0.0,0.0,27,0.00,CLR,FEW,0.00,WeatherDisplay:10.37,2013-03-15 16:27:00,
2013-03-15 12:32:00,54.1,20.0,30.18,North,0,0.0,0.0,26,0.00,CLR,FEW,0.00,WeatherDisplay:10.37,2013-03-15 16:32:00,
2013-03-15 12:37:00,54.3,20.1,30.18,North,0,0.0,0.0,26,0.00,CLR,FEW,0.00,WeatherDisplay:10.37,2013-03-15 16:37:00,
2013-03-15 12:42:00,54.3,20.1,30.18,North,0,0.0,0.0,26,0.00,CLR,FEW,0.00,WeatherDisplay:10.37,2013-03-15 16:42:00,
2013-03-15 12:47:00,54.3,20.1,30.18,North,0,0.0,0.0,26,0.00,CLR,FEW,0.00,WeatherDisplay:10.37,2013-03-15 16:47:00,
2013-03-15 12:52:00,54.7,20.4,30.18,North,0,0.0,0.0,26,0.00,CLR,FEW,0.00,WeatherDisplay:10.37,2013-03-15 16:52:00,
2013-03-15 12:57:00,54.9,20.6,30.18,North,0,0.0,0.0,26,0.00,CLR,FEW,0.00,WeatherDisplay:10.37,2013-03-15 16:57:00,
2013-03-15 13:03:00,55.6,20.3,30.15,North,0,0.0,0.0,25,0.00,CLR,FEW,0.00,WeatherDisplay:10.37,2013-03-15 17:03:00,
2013-03-15 13:08:00,55.8,21.3,30.15,North,0,0.0,0.0,26,0.00,CLR,FEW,0.00,WeatherDisplay:10.37,2013-03-15 17:08:00,
2013-03-15 13:13:00,56.3,21.8,30.15,North,0,0.0,0.0,26,0.00,CLR,FEW,0.00,WeatherDisplay:10.37,2013-03-15 17:13:00,
2013-03-15 13:19:00,56.3,21.8,30.15,North,0,0.0,0.0,26,0.00,CLR,FEW,0.00,WeatherDisplay:10.37,2013-03-15 17:19:00,
2013-03-15 13:24:00,56.3,21.8,30.15,North,0,0.0,0.0,26,0.00,CLR,FEW,0.00,WeatherDisplay:10.37,2013-03-15 17:24:00,
2013-03-15 13:29:00,56.7,22.1,30.15,North,0,0.0,0.0,26,0.00,CLR,FEW,0.00,WeatherDisplay:10.37,2013-03-15 17:29:00,
2013-03-15 13:34:00,56.3,21.8,30.15,North,0,0.0,0.0,26,0.00,CLR,FEW,0.00,WeatherDisplay:10.37,2013-03-15 17:34:00,
2013-03-15 13:39:00,55.9,20.6,30.15,North,0,0.0,0.0,25,0.00,CLR,FEW,0.00,WeatherDisplay:10.37,2013-03-15 17:39:00,
2013-03-15 13:44:00,55.9,21.5,30.12,North,0,0.0,0.0,26,0.00,CLR,FEW,0.00,WeatherDisplay:10.37,2013-03-15 17:44:00,
2013-03-15 13:49:00,55.9,21.5,30.12,North,0,0.0,0.0,26,0.00,CLR,FEW,0.00,WeatherDisplay:10.37,2013-03-15 17:49:00,
2013-03-15 13:54:00,55.8,21.3,30.12,North,0,0.0,0.0,26,0.00,CLR,FEW,0.00,WeatherDisplay:10.37,2013-03-15 17:54:00,
2013-03-15 13:59:00,56.3,21.8,30.12,North,0,0.0,0.0,26,0.00,CLR,FEW,0.00,WeatherDisplay:10.37,2013-03-15 17:59:00,
2013-03-15 14:04:00,56.5,22.0,30.12,North,0,0.0,0.0,26,0.00,CLR,FEW,0.00,WeatherDisplay:10.37,2013-03-15 18:04:00,
2013-03-15 14:09:00,56.7,22.1,30.12,North,0,0.0,0.0,26,0.00,CLR,FEW,0.00,WeatherDisplay:10.37,2013-03-15 18:09:00,
2013-03-15 14:14:00,57.2,22.6,30.12,North,0,0.0,0.0,26,0.00,CLR,FEW,0.00,WeatherDisplay:10.37,2013-03-15 18:14:00,
2013-03-15 14:19:00,57.2,22.6,30.12,North,0,0.0,0.0,26,0.00,CLR,FEW,0.00,WeatherDisplay:10.37,2013-03-15 18:19:00,
2013-03-15 14:24:00,56.8,23.2,30.12,North,0,0.0,0.0,27,0.00,CLR,FEW,0.00,WeatherDisplay:10.37,2013-03-15 18:24:00,
2013-03-15 14:29:00,57.2,23.5,30.12,North,0,0.0,0.0,27,0.00,CLR,FEW,0.00,WeatherDisplay:10.37,2013-03-15 18:29:00,
2013-03-15 14:34:00,57.9,23.2,30.12,North,0,0.0,0.0,26,0.00,CLR,FEW,0.00,WeatherDisplay:10.37,2013-03-15 18:34:00,
2013-03-15 14:39:00,58.1,23.3,30.12,North,0,0.0,0.0,26,0.00,CLR,FEW,0.00,WeatherDisplay:10.37,2013-03-15 18:39:00,
2013-03-15 14:44:00,58.3,23.5,30.09,North,0,0.0,0.0,26,0.00,CLR,FEW,0.00,WeatherDisplay:10.37,2013-03-15 18:44:00,
2013-03-15 14:49:00,58.5,23.7,30.09,North,0,0.0,0.0,26,0.00,CLR,FEW,0.00,WeatherDisplay:10.37,2013-03-15 18:49:00,
2013-03-15 14:54:00,58.1,23.3,30.09,North,0,0.0,0.0,26,0.00,CLR,FEW,0.00,WeatherDisplay:10.37,2013-03-15 18:54:00,
2013-03-15 14:59:00,57.9,24.1,30.09,North,0,0.0,0.0,27,0.00,CLR,FEW,0.00,WeatherDisplay:10.37,2013-03-15 18:59:00,
2013-03-15 15:04:00,57.6,22.9,30.09,North,0,0.0,0.0,26,0.00,CLR,FEW,0.00,WeatherDisplay:10.37,2013-03-15 19:04:00,
2013-03-15 15:09:00,57.6,23.8,30.09,North,0,0.0,0.0,27,0.00,CLR,FEW,0.00,WeatherDisplay:10.37,2013-03-15 19:09:00,
2013-03-15 15:14:00,57.4,22.7,30.09,North,0,0.0,0.0,26,0.00,CLR,FEW,0.00,WeatherDisplay:10.37,2013-03-15 19:14:00,
2013-03-15 15:19:00,57.4,24.5,30.09,North,0,0.0,0.0,28,0.00,CLR,FEW,0.00,WeatherDisplay:10.37,2013-03-15 19:19:00,
2013-03-15 15:24:00,57.6,22.9,30.09,North,0,0.0,0.0,26,0.00,CLR,FEW,0.00,WeatherDisplay:10.37,2013-03-15 19:24:00,
2013-03-15 15:29:00,57.4,23.6,30.09,North,0,0.0,0.0,27,0.00,CLR,FEW,0.00,WeatherDisplay:10.37,2013-03-15 19:29:00,
2013-03-15 15:34:00,57.6,24.7,30.09,North,0,0.0,0.0,28,0.00,CLR,FEW,0.00,WeatherDisplay:10.37,2013-03-15 19:34:00,
2013-03-15 15:39:00,58.1,24.3,30.09,North,0,0.0,0.0,27,0.00,CLR,FEW,0.00,WeatherDisplay:10.37,2013-03-15 19:39:00,
2013-03-15 15:44:00,58.1,25.1,30.06,North,0,0.0,0.0,28,0.00,CLR,FEW,0.00,WeatherDisplay:10.37,2013-03-15 19:44:00,
2013-03-15 15:49:00,58.5,24.6,30.06,North,0,0.0,0.0,27,0.00,CLR,FEW,0.00,WeatherDisplay:10.37,2013-03-15 19:49:00,
2013-03-15 15:54:00,58.3,25.3,30.06,North,0,0.0,0.0,28,0.00,CLR,FEW,0.00,WeatherDisplay:10.37,2013-03-15 19:54:00,
2013-03-15 15:59:00,58.5,25.4,30.06,North,0,0.0,0.0,28,0.00,CLR,FEW,0.00,WeatherDisplay:10.37,2013-03-15 19:59:00,
2013-03-15 16:05:00,58.5,26.3,30.06,North,0,0.0,0.0,29,0.00,CLR,FEW,0.00,WeatherDisplay:10.37,2013-03-15 20:05:00,
2013-03-15 16:10:00,58.5,26.3,30.06,North,0,0.0,0.0,29,0.00,CLR,FEW,0.00,WeatherDisplay:10.37,2013-03-15 20:10:00,
2013-03-15 16:15:00,58.5,26.3,30.06,North,0,0.0,0.0,29,0.00,CLR,FEW,0.00,WeatherDisplay:10.37,2013-03-15 20:15:00,
2013-03-15 16:20:00,58.3,26.1,30.06,North,0,0.0,0.0,29,0.00,CLR,FEW,0.00,WeatherDisplay:10.37,2013-03-15 20:20:00,
2013-03-15 16:25:00,58.5,26.3,30.06,North,0,0.0,0.0,29,0.00,CLR,FEW,0.00,WeatherDisplay:10.37,2013-03-15 20:25:00,
2013-03-15 16:30:00,58.3,26.1,30.06,North,0,0.0,0.0,29,0.00,CLR,FEW,0.00,WeatherDisplay:10.37,2013-03-15 20:30:00,
2013-03-15 16:35:00,58.1,26.0,30.06,North,0,0.0,0.0,29,0.00,CLR,FEW,0.00,WeatherDisplay:10.37,2013-03-15 20:35:00,
2013-03-15 16:40:00,57.9,27.4,30.06,North,0,0.0,0.0,31,0.00,CLR,FEW,0.00,WeatherDisplay:10.37,2013-03-15 20:40:00,
2013-03-15 16:45:00,57.9,28.2,30.03,North,0,0.0,0.0,32,0.00,CLR,FEW,0.00,WeatherDisplay:10.37,2013-03-15 20:45:00,
2013-03-15 16:50:00,57.9,29.7,30.03,North,0,0.0,0.0,34,0.00,CLR,FEW,0.00,WeatherDisplay:10.37,2013-03-15 20:50:00,
2013-03-15 16:55:00,57.7,30.2,30.03,North,0,0.0,0.0,35,0.00,CLR,FEW,0.00,WeatherDisplay:10.37,2013-03-15 20:55:00,
2013-03-15 17:00:00,57.6,30.8,30.03,North,0,0.0,0.0,36,0.00,CLR,FEW,0.00,WeatherDisplay:10.37,2013-03-15 21:00:00,
2013-03-15 17:05:00,57.2,30.5,30.03,North,0,0.0,0.0,36,0.00,CLR,FEW,0.00,WeatherDisplay:10.37,2013-03-15 21:05:00,
2013-03-15 17:10:00,57.4,29.9,30.03,North,0,0.0,0.0,35,0.00,CLR,FEW,0.00,WeatherDisplay:10.37,2013-03-15 21:10:00,
2013-03-15 17:15:00,57.4,29.9,30.03,North,0,0.0,0.0,35,0.00,CLR,FEW,0.00,WeatherDisplay:10.37,2013-03-15 21:15:00,
2013-03-15 17:20:00,57.4,29.9,30.03,North,0,0.0,0.0,35,0.00,CLR,FEW,0.00,WeatherDisplay:10.37,2013-03-15 21:20:00,
2013-03-15 17:25:00,57.4,29.9,30.03,North,0,0.0,0.0,35,0.00,CLR,FEW,0.00,WeatherDisplay:10.37,2013-03-15 21:25:00,
2013-03-15 17:30:00,57.4,29.2,30.03,North,0,0.0,0.0,34,0.00,CLR,FEW,0.00,WeatherDisplay:10.37,2013-03-15 21:30:00,
2013-03-15 17:35:00,57.2,29.8,30.03,North,0,0.0,0.0,35,0.00,CLR,FEW,0.00,WeatherDisplay:10.37,2013-03-15 21:35:00,
2013-03-15 17:40:00,57.0,30.3,30.03,North,0,0.0,0.0,36,0.00,CLR,FEW,0.00,WeatherDisplay:10.37,2013-03-15 21:40:00,
2013-03-15 17:45:00,56.8,30.8,30.03,North,0,0.0,0.0,37,0.00,CLR,FEW,0.00,WeatherDisplay:10.37,2013-03-15 21:45:00,
2013-03-15 17:50:00,56.5,31.8,30.03,North,0,0.0,0.0,39,0.00,CLR,FEW,0.00,WeatherDisplay:10.37,2013-03-15 21:50:00,
2013-03-15 17:55:00,56.1,31.5,30.03,North,0,0.0,0.0,39,0.00,CLR,FEW,0.00,WeatherDisplay:10.37,2013-03-15 21:55:00,
2013-03-15 18:00:00,56.1,32.1,30.03,North,0,0.0,0.0,40,0.00,CLR,FEW,0.00,WeatherDisplay:10.37,2013-03-15 22:00:00,
2013-03-15 18:05:00,55.9,31.9,30.03,North,0,0.0,0.0,40,0.00,CLR,FEW,0.00,WeatherDisplay:10.37,2013-03-15 22:05:00,
2013-03-15 18:11:00,55.9,31.9,30.03,North,0,0.0,0.0,40,0.00,CLR,FEW,0.00,WeatherDisplay:10.37,2013-03-15 22:11:00,
2013-03-15 18:16:00,55.9,31.9,30.03,North,0,0.0,0.0,40,0.00,CLR,FEW,0.00,WeatherDisplay:10.37,2013-03-15 22:16:00,
2013-03-15 18:21:00,55.9,32.6,30.03,North,0,0.0,0.0,41,0.00,CLR,FEW,0.00,WeatherDisplay:10.37,2013-03-15 22:21:00,
2013-03-15 18:26:00,55.8,32.4,30.03,North,0,0.0,0.0,41,0.00,CLR,FEW,0.00,WeatherDisplay:10.37,2013-03-15 22:26:00,
2013-03-15 18:31:00,55.8,33.0,30.00,North,0,0.0,0.0,42,0.00,CLR,FEW,0.00,WeatherDisplay:10.37,2013-03-15 22:31:00,
2013-03-15 18:36:00,55.6,34.0,30.00,North,0,0.0,0.0,44,0.00,CLR,FEW,0.00,WeatherDisplay:10.37,2013-03-15 22:36:00,
2013-03-15 18:41:00,55.6,34.6,30.00,North,0,0.0,0.0,45,0.00,CLR,FEW,0.00,WeatherDisplay:10.37,2013-03-15 22:41:00,
2013-03-15 18:47:00,55.8,35.3,30.00,North,0,0.0,0.0,46,0.00,CLR,FEW,0.00,WeatherDisplay:10.37,2013-03-15 22:47:00,
2013-03-15 18:53:00,55.8,34.7,30.00,North,0,0.0,0.0,45,0.00,CLR,FEW,0.00,WeatherDisplay:10.37,2013-03-15 22:53:00,
2013-03-15 18:58:00,55.6,34.6,30.03,North,0,0.0,0.0,45,0.00,CLR,FEW,0.00,WeatherDisplay:10.37,2013-03-15 22:58:00,
2013-03-15 19:03:00,55.6,35.1,30.03,North,0,0.0,0.0,46,0.00,CLR,FEW,0.00,WeatherDisplay:10.37,2013-03-15 23:03:00,
2013-03-15 19:08:00,55.4,34.9,30.03,North,0,0.0,0.0,46,0.00,CLR,FEW,0.00,WeatherDisplay:10.37,2013-03-15 23:08:00,
2013-03-15 19:13:00,55.2,35.3,30.03,North,0,0.0,0.0,47,0.00,CLR,FEW,0.00,WeatherDisplay:10.37,2013-03-15 23:13:00,
2013-03-15 19:18:00,55.2,35.9,30.03,North,0,0.0,0.0,48,0.00,CLR,FEW,0.00,WeatherDisplay:10.37,2013-03-15 23:18:00,
2013-03-15 19:23:00,55.0,36.2,30.03,North,0,0.0,0.0,49,0.00,CLR,FEW,0.00,WeatherDisplay:10.37,2013-03-15 23:23:00,
2013-03-15 19:28:00,55.0,36.7,30.00,North,0,0.0,0.0,50,0.00,CLR,FEW,0.00,WeatherDisplay:10.37,2013-03-15 23:28:00,
2013-03-15 19:33:00,55.0,36.7,30.00,North,0,0.0,0.0,50,0.00,CLR,FEW,0.00,WeatherDisplay:10.37,2013-03-15 23:33:00,
2013-03-15 19:38:00,54.9,36.0,30.00,North,0,0.0,0.0,49,0.00,CLR,FEW,0.00,WeatherDisplay:10.37,2013-03-15 23:38:00,
2013-03-15 19:43:00,54.9,34.5,30.03,North,0,0.0,0.0,46,0.00,CLR,FEW,0.00,WeatherDisplay:10.37,2013-03-15 23:43:00,
2013-03-15 19:48:00,55.2,32.5,30.03,North,0,0.0,0.0,42,0.00,CLR,FEW,0.00,WeatherDisplay:10.37,2013-03-15 23:48:00,
2013-03-15 19:53:00,55.0,31.7,30.03,North,0,0.0,0.0,41,0.00,CLR,FEW,0.00,WeatherDisplay:10.37,2013-03-15 23:53:00,
2013-03-15 19:58:00,55.0,31.1,30.00,North,0,0.0,0.0,40,0.00,CLR,FEW,0.00,WeatherDisplay:10.37,2013-03-15 23:58:00,
2013-03-15 20:04:00,54.9,31.0,30.00,North,0,0.0,0.0,40,0.00,CLR,FEW,0.00,WeatherDisplay:10.37,2013-03-16 00:04:00,
2013-03-15 20:09:00,54.7,30.2,30.00,North,0,0.0,0.0,39,0.00,CLR,FEW,0.00,WeatherDisplay:10.37,2013-03-16 00:09:00,
2013-03-15 20:14:00,54.5,30.0,30.00,North,0,0.0,0.0,39,0.00,CLR,FEW,0.00,WeatherDisplay:10.37,2013-03-16 00:14:00,
2013-03-15 20:19:00,54.3,30.5,30.00,North,0,0.0,0.0,40,0.00,CLR,FEW,0.00,WeatherDisplay:10.37,2013-03-16 00:19:00,
2013-03-15 20:24:00,54.0,30.2,30.00,North,0,0.0,0.0,40,0.00,CLR,FEW,0.00,WeatherDisplay:10.37,2013-03-16 00:24:00,
2013-03-15 20:29:00,53.8,30.0,30.00,North,0,0.0,0.0,40,0.00,CLR,FEW,0.00,WeatherDisplay:10.37,2013-03-16 00:29:00,
2013-03-15 20:34:00,53.6,29.2,30.00,North,0,0.0,0.0,39,0.00,CLR,FEW,0.00,WeatherDisplay:10.37,2013-03-16 00:34:00,
2013-03-15 20:39:00,53.4,29.1,30.00,North,0,0.0,0.0,39,0.00,CLR,FEW,0.00,WeatherDisplay:10.37,2013-03-16 00:39:00,
2013-03-15 20:44:00,53.6,30.4,30.00,North,0,0.0,0.0,41,0.00,CLR,FEW,0.00,WeatherDisplay:10.37,2013-03-16 00:44:00,
2013-03-15 20:49:00,53.6,31.0,30.00,North,0,0.0,0.0,42,0.00,CLR,FEW,0.00,WeatherDisplay:10.37,2013-03-16 00:49:00,
2013-03-15 20:54:00,53.8,32.9,30.00,North,0,0.0,0.0,45,0.00,CLR,FEW,0.00,WeatherDisplay:10.37,2013-03-16 00:54:00,
2013-03-15 20:59:00,54.0,33.1,30.00,North,0,0.0,0.0,45,0.00,CLR,FEW,0.00,WeatherDisplay:10.37,2013-03-16 00:59:00,
2013-03-15 21:04:00,54.0,33.1,30.00,North,0,0.0,0.0,45,0.00,CLR,FEW,0.00,WeatherDisplay:10.37,2013-03-16 01:04:00,
2013-03-15 21:09:00,54.1,33.2,30.00,North,0,0.0,0.0,45,0.00,CLR,FEW,0.00,WeatherDisplay:10.37,2013-03-16 01:09:00,
2013-03-15 21:14:00,54.1,32.7,30.00,North,0,0.0,0.0,44,0.00,CLR,FEW,0.00,WeatherDisplay:10.37,2013-03-16 01:14:00,
2013-03-15 21:19:00,54.1,32.7,30.00,North,0,0.0,0.0,44,0.00,CLR,FEW,0.00,WeatherDisplay:10.37,2013-03-16 01:19:00,
2013-03-15 21:24:00,54.1,32.7,30.00,North,0,0.0,0.0,44,0.00,CLR,FEW,0.00,WeatherDisplay:10.37,2013-03-16 01:24:00,
2013-03-15 21:29:00,54.1,32.7,30.00,North,0,0.0,0.0,44,0.00,CLR,FEW,0.00,WeatherDisplay:10.37,2013-03-16 01:29:00,
2013-03-15 21:34:00,54.1,32.1,30.00,North,0,0.0,0.0,43,0.00,CLR,FEW,0.00,WeatherDisplay:10.37,2013-03-16 01:34:00,
2013-03-15 21:39:00,54.1,32.1,30.00,North,0,0.0,0.0,43,0.00,CLR,FEW,0.00,WeatherDisplay:10.37,2013-03-16 01:39:00,
2013-03-15 21:44:00,54.1,32.1,30.00,North,0,0.0,0.0,43,0.00,CLR,FEW,0.00,WeatherDisplay:10.37,2013-03-16 01:44:00,
2013-03-15 21:49:00,54.1,32.1,30.00,North,0,0.0,0.0,43,0.00,CLR,FEW,0.00,WeatherDisplay:10.37,2013-03-16 01:49:00,
2013-03-15 21:54:00,54.0,32.0,30.00,North,0,0.0,0.0,43,0.00,CLR,FEW,0.00,WeatherDisplay:10.37,2013-03-16 01:54:00,
2013-03-15 21:59:00,54.0,31.4,30.00,North,0,0.0,0.0,42,0.00,CLR,FEW,0.00,WeatherDisplay:10.37,2013-03-16 01:59:00,
2013-03-15 22:04:00,54.0,31.4,30.00,North,0,0.0,0.0,42,0.00,CLR,FEW,0.00,WeatherDisplay:10.37,2013-03-16 02:04:00,
2013-03-15 22:09:00,54.0,30.8,30.00,North,0,0.0,0.0,41,0.00,CLR,FEW,0.00,WeatherDisplay:10.37,2013-03-16 02:09:00,
2013-03-15 22:14:00,54.1,29.7,30.00,North,0,0.0,0.0,39,0.00,CLR,FEW,0.00,WeatherDisplay:10.37,2013-03-16 02:14:00,
2013-03-15 22:19:00,54.1,29.7,30.00,North,0,0.0,0.0,39,0.00,CLR,FEW,0.00,WeatherDisplay:10.37,2013-03-16 02:19:00,
2013-03-15 22:24:00,54.3,29.9,30.00,North,0,0.0,0.0,39,0.00,CLR,FEW,0.00,WeatherDisplay:10.37,2013-03-16 02:24:00,
2013-03-15 22:29:00,54.5,30.0,30.00,North,0,0.0,0.0,39,0.00,CLR,FEW,0.00,WeatherDisplay:10.37,2013-03-16 02:29:00,
2013-03-15 22:34:00,54.5,30.0,30.00,North,0,0.0,0.0,39,0.00,CLR,FEW,0.00,WeatherDisplay:10.37,2013-03-16 02:34:00,
2013-03-15 22:39:00,54.5,30.0,30.00,North,0,0.0,0.0,39,0.00,CLR,FEW,0.00,WeatherDisplay:10.37,2013-03-16 02:39:00,
2013-03-15 22:44:00,54.7,30.2,30.00,North,0,0.0,0.0,39,0.00,CLR,FEW,0.00,WeatherDisplay:10.37,2013-03-16 02:44:00,
2013-03-15 22:49:00,54.9,30.3,30.00,North,0,0.0,0.0,39,0.00,CLR,FEW,0.00,WeatherDisplay:10.37,2013-03-16 02:49:00,
2013-03-15 22:54:00,54.9,30.3,30.00,North,0,0.0,0.0,39,0.00,CLR,FEW,0.00,WeatherDisplay:10.37,2013-03-16 02:54:00,
2013-03-15 23:00:00,54.9,30.3,30.00,North,0,0.0,0.0,39,0.00,CLR,FEW,0.00,WeatherDisplay:10.37,2013-03-16 03:00:00,
2013-03-15 23:05:00,54.9,30.3,30.00,North,0,0.0,0.0,39,0.00,CLR,FEW,0.00,WeatherDisplay:10.37,2013-03-16 03:05:00,
2013-03-15 23:10:00,55.0,30.5,30.00,North,0,0.0,0.0,39,0.00,CLR,FEW,0.00,WeatherDisplay:10.37,2013-03-16 03:10:00,
2013-03-15 23:15:00,55.2,30.7,30.00,North,0,0.0,0.0,39,0.00,CLR,FEW,0.00,WeatherDisplay:10.37,2013-03-16 03:15:00,
2013-03-15 23:20:00,55.2,30.7,30.00,North,0,0.0,0.0,39,0.00,CLR,FEW,0.00,WeatherDisplay:10.37,2013-03-16 03:20:00,
2013-03-15 23:25:00,55.2,31.3,30.00,North,0,0.0,0.0,40,0.00,CLR,FEW,0.00,WeatherDisplay:10.37,2013-03-16 03:25:00,
2013-03-15 23:30:00,55.2,31.3,30.00,North,0,0.0,0.0,40,0.00,CLR,FEW,0.00,WeatherDisplay:10.37,2013-03-16 03:30:00,
2013-03-15 23:35:00,55.2,31.3,30.00,North,0,0.0,0.0,40,0.00,CLR,FEW,0.00,WeatherDisplay:10.37,2013-03-16 03:35:00,
2013-03-15 23:40:00,55.4,31.5,30.00,North,0,0.0,0.0,40,0.00,CLR,FEW,0.00,WeatherDisplay:10.37,2013-03-16 03:40:00,
2013-03-15 23:45:00,55.4,32.1,30.00,North,0,0.0,0.0,41,0.00,CLR,FEW,0.00,WeatherDisplay:10.37,2013-03-16 03:45:00,
2013-03-15 23:50:00,55.4,32.1,30.00,North,0,0.0,0.0,41,0.00,CLR,FEW,0.00,WeatherDisplay:10.37,2013-03-16 03:50:00,
2013-03-15 23:55:00,55.2,33.1,30.00,North,0,0.0,0.0,43,0.00,CLR,FEW,0.00,WeatherDisplay:10.37,2013-03-16 03:55:00,